Regional Weather Roundup
Issued by NWS

Home | Current Version | Previous Version | Text Only | Print | Product List | Glossary On
Versions: 1 2 3 4 5 6 7 8 9 10 11 12 13 14 15 16 17 18 19 20 21 22 23 24 25 26 27 28 29 30 31 32 33 34 35 36 37 38 39 40 41 42 43 44 45 46 47 48 49 50
000
ASUS43 KTOP 230708
RWRKS

WEATHER ROUNDUP FOR KANSAS
NATIONAL WEATHER SERVICE GOODLAND KS
200 AM CDT SAT AUG 23 2014

NOTE:  "FAIR" INDICATES FEW OR NO CLOUDS BELOW 12,000 FEET WITH NO
SIGNIFICANT WEATHER AND/OR OBSTRUCTIONS TO VISIBILITY.

KSZ001>006-013>018-027>032-041>047-230800-
NORTHWEST KANSAS

CITY           SKY/WX    TMP DP  RH WIND       PRES   REMARKS
GOODLAND       PTCLDY    65  63  93 SE10      29.93S
HAYS           MOCLDY    72  64  78 E5        29.89S
HILL CITY      CLOUDY    69  67  93 CALM      29.90R
RUSSELL        PTCLDY    72  67  84 NE9       29.87S
$$

KSZ061>065-074>080-084>089-230800-
SOUTHWEST KANSAS

CITY           SKY/WX    TMP DP  RH WIND       PRES   REMARKS
DODGE CITY     LGT RAIN  73  64  73 SW8       29.94S
ELKHART          N/A     70  59  68 S8          N/A
GARDEN CITY    LGT RAIN  70  64  81 SW21G28   29.96R
GREAT BEND     CLEAR     79  59  50 S14       29.87S
LIBERAL        MOCLDY    72  61  68 W9        29.96F
PRATT          CLEAR     79  55  44 S13       29.92R
$$

KSZ066>073-081>083-090>101-230800-
SOUTHEAST KANSAS

CITY           SKY/WX    TMP DP  RH WIND       PRES   REMARKS
CHANUTE        CLEAR     80  70  71 S10       29.93S
COFFEYVILLE    CLEAR     80  71  74 S12       29.93S
HUTCHINSON     CLEAR     80  64  58 S12       29.89S
MEDICINE LODGE   N/A     79  60  52 S6        29.89S
NEWTON         CLEAR     81  61  50 S16       29.94S
PARSONS        CLEAR     79  70  74 S6        29.94F
WICHITA INTL   PTCLDY    81  64  56 S13       29.90R
WICHITA JABRA  CLEAR     81  64  56 S15       29.91S
WICHITA MCCONL CLEAR     81  64  57 S16       29.91S
WINFIELD       CLEAR     80  65  59 S12       29.92F
$$

KSZ007>012-019>026-033>040-048>060-102>105-230800-
NORTHEAST KANSAS

CITY           SKY/WX    TMP DP  RH WIND       PRES   REMARKS
CONCORDIA      CLOUDY    75  73  93 E3        29.89R
EMPORIA        CLEAR     76  71  85 S13       29.90F
LAWRENCE       CLEAR     77  70  79 SE7       29.90S
MANHATTAN      PTCLDY    83  69  62 S7        29.87S
MARYSVILLE     MOCLDY    75  73  94 S3        29.88F
OLATHE IND     CLEAR     77  72  84 S9        29.92S
OLATHE EXE     CLEAR     75  70  84 S5        29.92S
SALINA         PTCLDY    83  66  56 S9        29.86S
TOPEKA BILLARD CLEAR     78  73  84 CALM      29.89S
TOPEKA FORBES  CLEAR     78  70  76 S7        29.90S
$$


USA.gov is the U.S. government's official web portal to all federal, state and local government web resources and services.